Powrót do katalogu

COSMOS 2050

AktywnyMilitariaHEO
NORAD 20330·PAYLOAD·🇷🇺 Russia

Wystrzelony Nov 23, 1989 z Plesetsk Cosmodrome

Loading…

Następne Przeloty (najbliższe 24 godziny)

TLE

ŚwieżeSource: Space-Track

Epoka: Sep 13, 2026, 11:10 UTC

1 20330U 89091A   26256.46567859  .00000595  00000-0  00000-0 0  9995
2 20330  65.7585  78.7477 5869636 162.6101 232.0186  2.00499114269577

Śledź COSMOS 2050 w czasie rzeczywistym z AllMySat

Download on the App Store